Regional Weather Roundup
Issued by NWS

Home | Current Version | Previous Version | Graphics & Text | Print | Product List | Glossary On
Versions: 1 2 3 4 5 6 7 8 9 10 11 12 13 14 15 16 17 18 19 20 21 22 23 24 25 26 27 28 29 30 31 32 33 34 35 36 37 38 39 40 41 42 43 44 45 46 47 48 49 50
000
ASUS43 KIND 271509
RWRIN

WEATHER ROUNDUP FOR INDIANA
NATIONAL WEATHER SERVICE INDIANAPOLIS IN
1100 AM EDT SAT AUG 27 2016

NOTE: "FAIR" INDICATES FEW OR NO CLOUDS BELOW 12,000 FEET WITH NO
SIGNIFICANT WEATHER AND/OR OBSTRUCTIONS TO VISIBILITY.

* - STATION DOES NOT REPORT WEATHER SUCH AS PRECIPITATION OR FOG.

+ - STATION NOT QUALITY CONTROLLED BY THE NATIONAL WEATHER SERVICE.
    USE DATA WITH CAUTION...ESPECIALLY DEWPOINT AND RELATIVE
    HUMIDITY OBSERVATIONS.

INZ001>003-010>013-019-020-271600-
NORTHWEST INDIANA

CITY           SKY/WX    TMP DP  RH WIND       PRES   REMARKS
GARY /AIRPORT/ PTSUNNY   75  75 100 E9        30.07F
KNOX *+        CLOUDY    70  61  73 CALM      30.12R VSB 3/4
LA PORTE +     CLOUDY   N/A N/A N/A SE6       30.13R
MICHIGAN CITY+ CLOUDY    70  70 100 MISG      30.10S
MONTICELLO +   CLOUDY    74  69  85 CALM      30.11S
RENSSELAER +   PTSUNNY   77  72  83 E7        30.11S
VALPARAISO     CLOUDY    72  70  93 SE9       30.10S

$$

LMZ046-743>745-271600-
SOUTHERN LAKE MICHIGAN

STATION/POSITION TIME  TEMP    WIND        PRES    WAVE
                       AIR SEA DIR/SP/G            HT
                 (UTC) (F)     (DEG/KT/KT) (MB)    (FT)
BURNS HARBOR     1407   71     110/  7/ 13 1019.3F
MICHIGAN CITY    1400   69      60/  9/ 10   N/A
5NW MICH CITY    1400   71 75   90/ 12/ 14   N/A     1

$$

INZ004-005-014>016-021>024-271600-
NORTH CENTRAL INDIANA

CITY           SKY/WX    TMP DP  RH WIND       PRES   REMARKS
ELKHART        CLOUDY    70  68  94 W3        30.15S
GOSHEN         TSTM      70  67  90 NE3       30.12F VSB 3/4
LOGANSPORT +   LGT RAIN  70  70 100 SE5       30.14S
PERU/GRISSOM   RAIN      71  71 100 NW6       30.14R VSB 1
ROCHESTER +    RAIN      73  73 100 CALM      30.13F
SOUTH BEND     LGT RAIN  70  69  97 CALM      30.13R
WARSAW +       HVY RAIN  72  72 100 SW10      30.17R

$$

INZ006>009-017-018-025>027-271600-
NORTHEAST INDIANA

CITY           SKY/WX    TMP DP  RH WIND       PRES   REMARKS
ANGOLA *+      CLOUDY    75  70  83 W6        30.13R
AUBURN +       MOSUNNY   79  66  65 CALM      30.13R
FORT WAYNE     PTSUNNY   81  72  74 SW10      30.13R
HUNTINGTON +   CLOUDY    79  73  82 SW6       30.12R

$$

INZ028-029-035-036-043>045-051>053-271600-
WEST CENTRAL INDIANA

CITY           SKY/WX    TMP DP  RH WIND       PRES   REMARKS
CRAWFORDSVL +  PTSUNNY   76  74  96 CALM      30.13S
GREENCASTLE +  CLOUDY    73  73 100 CALM      30.15R
LAFAYETTE      CLOUDY    75  73  93 SE5       30.11R
TERRE HAUTE    CLOUDY    76  71  85 S3        30.13R

$$

INZ030>032-037>040-046>048-054>057-064-065-271600-
CENTRAL INDIANA

CITY           SKY/WX    TMP DP  RH WIND       PRES   REMARKS
COLUMBUS       MOSUNNY   75  75 100 CALM      30.13R
INDIANAPOLIS   CLOUDY    75  71  87 N7        30.14R
-EAGLE CREEK   CLOUDY    76  71  85 NW7       30.14R
KOKOMO *+      CLOUDY    73  70  88 NW7       30.14R
MARION +       CLOUDY    79  72  80 W10G21    30.15R HAZE
MT COMFORT *+  PTSUNNY   77  72  83 W7        30.16R
SHELBYVILLE    CLOUDY    81  74  79 NW6       30.13R
ZIONSVILLE +   HVY RAIN  73  70  92 CALM      30.16R

$$

INZ033-034-041-042-049-050-058-059-271600-
EAST CENTRAL INDIANA

CITY           SKY/WX    TMP DP  RH WIND       PRES   REMARKS
MUNCIE         MOSUNNY   82  74  76 S5        30.13S

$$

INZ060-061-067>069-081>083-085>088-271600-
SOUTHWEST INDIANA

CITY           SKY/WX    TMP DP  RH WIND       PRES   REMARKS
EVANSVILLE     CLOUDY    77  72  84 NE3       30.13R
HUNTINGBURG *+ CLOUDY    75  70  83 N7        30.15R
WASHINGTON +   TSTM      71  71 100 MISG      30.15S

$$

INZ062-063-066-070>080-084-089>092-271600-
SOUTH CENTRAL AND SOUTHEAST INDIANA

CITY           SKY/WX    TMP DP  RH WIND       PRES   REMARKS
BLOOMINGTON    TSTM      72  68  87 W10       30.16R FOG
MADISON *+     MOSUNNY   86  70  58 CALM      30.14R

$$




USA.gov is the U.S. government's official web portal to all federal, state and local government web resources and services.